Tracking 25648 objects as of 17-May-2022
HD Live streaming from Space Station
objects crossing your sky now

LEMUR 2 MIA-GRACE

Track LEMUR 2 MIA-GRACE now!
10-day predictions
LEMUR 2 MIA-GRACE is classified as:


NORAD ID: 41992
Int'l Code: 2017-008AW
Perigee: 466.7 km
Apogee: 472.8 km
Inclination: 97.3 °
Period: 93.8 minutes
Semi major axis: 6840 km
RCS: Unknown
Launch date: February 15, 2017
Source: United States (US)
Launch site: SRIHARIKOTA (SRI)
aabbcc
Your satellite tracking list
Your tracking list is empty




NASA's NSSDC Master Catalog

Two Line Element Set (TLE):
1 41992U 17008AW  22136.45470561  .00023535  00000-0  70663-3 0  9990
2 41992  97.2704 202.4970 0004396 354.3644   5.7549 15.34429259291502
Source of the keplerian elements: AFSPC